Tracking 31027 objects as of 19-Jul-2025
HD Live streaming from Space Station
objects crossing your sky now

CZ-4C DEB

Track CZ-4C DEB now!
10-day predictions


NORAD ID: 42672
Int'l Code: 2015-069E
Perigee: 535.7 km
Apogee: 664.5 km
Inclination: 98.3 °
Period: 96.5 minutes
Semi major axis: 6971 km
RCS: Unknown
Launch date: November 26, 2015
Source: People's Republic of China (PRC)
Launch site: Taiyaun Space Center, China (TSC)

Note: This is SATELLITE DEBRIS
Your satellite tracking list
COSMOS 1275 DEB
Track 1 satellite(s)




NASA's NSSDC Master Catalog

Two Line Element Set (TLE):
1 42672U 15069E   25199.35804055  .00011457  00000-0  10572-2 0  9993
2 42672  98.2550 165.2794 0092383 334.4806  25.1864 14.91583244509134
Source of the keplerian elements: AFSPC